Thayer, KS

10:48 PM CST on February 22, 2017 (GMT -0600)
Tri-City

Weather History for KPPF - June, 2014

Change the Weather History Date:

Tuesday, June 10, 2014

  Actual Average Record
Temperature  
Mean Temperature 66 °F -  
Max Temperature 72 °F 83 °F 99 °F (1963)
Min Temperature 59 °F 62 °F 49 °F (1988)
Cooling Degree Days 1    
Growing Degree Days 16 (Base 50)    
Moisture  
Dew Point 60 °F    
Average Humidity 86    
Maximum Humidity 93    
Minimum Humidity 68    
Precipitation  
Precipitation 0.00 in - - ()
Sea Level Pressure  
Sea Level Pressure 29.76 in    
Wind  
Wind Speed 6 mph (North)    
Max Wind Speed 16 mph    
Max Gust Speed 22 mph    
Visibility 10 miles    
Events Rain    
Averages and records for this station are not official NWS values.
T = Trace of Precipitation, MM = Missing Value Source: NWS Daily Summary

Daily Weather History Graph

Daily Weather History Graph

Search for Another Location

Airport or City:

Trip Planner

Search our weather history database for the weather conditions in past years. The results will help you decide how hot, cold, wet, or windy it might be!

Date:

Astronomy

Jun. 10, 2014 Rise Set
Actual Time 6:01 AM CDT 8:42 PM CDT
Civil Twilight 5:30 AM CDT 9:13 PM CDT
Nautical Twilight 4:51 AM CDT 9:51 PM CDT
Astronomical Twilight 4:08 AM CDT 10:35 PM CDT
Moon 6:11 PM CDT (6/10) 4:03 AM CDT (6/10)
Length of Visible Light 15h 42m
Length of Day
14h 41m
Waxing Gibbous, 92% of the Moon is Illuminated
Jun 10
Waxing Gibbous
Jun 12
Full
Jun 19
Last Quarter
Jun 27
New
Jul 5
First Quarter

Hourly Weather History & Observations

Time (CDT) Temp. Dew Point Humidity Pressure Visibility Wind Dir Wind Speed Gust Speed Precip Events Conditions
12:52 AM 61.0 °F 59.0 °F 93% 29.70 in 8.0 mi North 6.9 mph - N/A   Clear
1:52 AM 61.0 °F 57.9 °F 90% 29.69 in 10.0 mi NNE 3.5 mph - N/A   Partly Cloudy
2:32 AM 60.1 °F 57.9 °F 93% 29.70 in 10.0 mi Calm Calm - N/A   Mostly Cloudy
2:52 AM 61.0 °F 59.0 °F 93% 29.68 in 10.0 mi Calm Calm - N/A   Overcast
3:52 AM 63.0 °F 61.0 °F 93% 29.69 in 10.0 mi NNW 3.5 mph - N/A   Overcast
4:03 AM 64.0 °F 61.0 °F 90% 29.71 in 10.0 mi Variable 3.5 mph - N/A   Overcast
4:25 AM 64.0 °F 62.1 °F 93% 29.70 in 9.0 mi Calm Calm - N/A   Overcast
4:35 AM 64.0 °F 62.1 °F 93% 29.71 in 9.0 mi NNW 3.5 mph - N/A   Overcast
4:52 AM 64.0 °F 62.1 °F 93% 29.69 in 10.0 mi NNW 8.1 mph - N/A   Overcast
5:21 AM 64.0 °F 62.1 °F 93% 29.71 in 10.0 mi NNW 8.1 mph - N/A   Overcast
5:52 AM 64.0 °F 61.0 °F 90% 29.70 in 10.0 mi NNW 6.9 mph - N/A   Overcast
6:20 AM 64.0 °F 62.1 °F 93% 29.73 in 7.0 mi NNW 4.6 mph - N/A   Overcast
7:02 AM 64.9 °F 62.1 °F 90% 29.74 in 10.0 mi North 13.8 mph 21.9 mph 0.00 in   Overcast
7:52 AM 62.1 °F 59.0 °F 90% 29.74 in 8.0 mi NNE 11.5 mph 18.4 mph 0.00 in   Overcast
9:12 AM 63.0 °F 59.0 °F 87% 29.77 in 10.0 mi North 8.1 mph - N/A   Overcast
9:38 AM 63.0 °F 59.0 °F 87% 29.78 in 9.0 mi North 10.4 mph - 0.00 in Rain Light Rain
10:52 AM 64.9 °F 59.0 °F 81% 29.78 in 10.0 mi North 8.1 mph - N/A   Overcast
11:52 AM 66.0 °F 60.1 °F 81% 29.79 in 10.0 mi NNW 15.0 mph - N/A   Overcast
12:21 PM 64.0 °F 57.9 °F 80% 29.80 in 10.0 mi NNW 12.7 mph 21.9 mph N/A   Overcast
12:52 PM 66.0 °F 59.0 °F 78% 29.79 in 10.0 mi North 16.1 mph - N/A   Overcast
1:03 PM 64.9 °F 57.9 °F 78% 29.81 in 10.0 mi North 12.7 mph - N/A   Overcast
1:52 PM 64.0 °F 59.0 °F 84% 29.80 in 8.0 mi NNW 13.8 mph - N/A   Overcast
2:03 PM 63.0 °F 59.0 °F 87% 29.81 in 5.0 mi NNW 11.5 mph - 0.00 in Rain Light Rain
3:08 PM 64.9 °F 59.0 °F 81% 29.82 in 10.0 mi North 10.4 mph - N/A   Overcast
3:52 PM 66.9 °F 59.0 °F 76% 29.81 in 10.0 mi NNE 12.7 mph 20.7 mph N/A   Overcast
4:52 PM 68.0 °F 60.1 °F 76% 29.80 in 10.0 mi North 8.1 mph - N/A   Overcast
5:12 PM 69.1 °F 60.1 °F 73% 29.82 in 10.0 mi North 9.2 mph - N/A   Overcast
6:52 PM 72.0 °F 61.0 °F 68% 29.78 in 10.0 mi NNE 5.8 mph - N/A   Partly Cloudy
7:52 PM 71.1 °F 60.1 °F 68% 29.79 in 10.0 mi North 6.9 mph - N/A   Clear
8:52 PM 64.0 °F 60.1 °F 87% 29.80 in 10.0 mi Calm Calm - N/A   Clear
9:52 PM 61.0 °F 59.0 °F 93% 29.81 in 10.0 mi Calm Calm - N/A   Partly Cloudy
10:52 PM 63.0 °F 57.9 °F 84% 29.83 in 10.0 mi Calm Calm - N/A   Clear
11:52 PM 59.0 °F 55.9 °F 90% 29.83 in 10.0 mi NNW 3.5 mph - N/A   Clear